| time (UTC) | temp F | wind direction | speed MPH | gust MPH | rain 1hr in | rain 24hr in | rain mn in | humidity % | barometer mb |
| 20260905140039 | 73 | 316 | 1.0 | 10.0 | 0.00 | 0.06 | 0.00 | 75 | 1008.8 |
| 20260905134543 | 73 | 38 | 1.0 | 6.0 | 0.00 | 0.06 | 0.00 | 75 | 1009.0 |
| 20260905133036 | 73 | 55 | 4.0 | 11.0 | 0.00 | 0.06 | 0.00 | 73 | 1009.1 |
| 20260905131533 | 72 | 51 | 1.0 | 9.0 | 0.00 | 0.06 | 0.00 | 78 | 1009.0 |
| 20260905130029 | 72 | 42 | 2.0 | 6.0 | 0.00 | 0.06 | 0.00 | 79 | 1009.4 |
| 20260905124539 | 71 | 342 | 0.0 | 5.0 | 0.00 | 0.06 | 0.00 | 81 | 1009.3 |
| 20260905123024 | 70 | 15 | 1.0 | 5.0 | 0.00 | 0.06 | 0.00 | 83 | 1009.4 |
| 20260905121520 | 69 | 13 | 0.0 | 5.0 | 0.00 | 0.06 | 0.00 | 85 | 1009.5 |
| 20260905120020 | 68 | 53 | 0.0 | 6.0 | 0.00 | 0.06 | 0.00 | 87 | 1009.2 |
| 20260905114519 | 67 | 34 | 0.0 | 1.0 | 0.00 | 0.06 | 0.00 | 90 | 1009.1 |
| 20260905113017 | 66 | 34 | 0.0 | 1.0 | 0.00 | 0.06 | 0.00 | 90 | 1008.8 |
| 20260905111516 | 65 | 34 | 0.0 | 1.0 | 0.00 | 0.06 | 0.00 | 89 | 1008.8 |
| 20260905110016 | 65 | 34 | 0.0 | 0.0 | 0.00 | 0.06 | 0.00 | 88 | 1008.8 |
| 20260905104524 | 65 | 34 | 0.0 | 0.0 | 0.00 | 0.06 | 0.00 | 88 | 1008.7 |
| 20260905103014 | 65 | 34 | 0.0 | 2.0 | 0.00 | 0.06 | 0.00 | 88 | 1008.6 |
| 20260905101514 | 66 | 35 | 0.0 | 1.0 | 0.00 | 0.06 | 0.00 | 87 | 1008.5 |
| 20260905100013 | 66 | 32 | 0.0 | 1.0 | 0.00 | 0.06 | 0.00 | 87 | 1008.5 |
| 20260905094512 | 66 | 32 | 0.0 | 1.0 | 0.00 | 0.06 | 0.00 | 87 | 1008.4 |
| 20260905093010 | 66 | 33 | 0.0 | 0.0 | 0.00 | 0.06 | 0.00 | 87 | 1008.4 |
| 20260905091508 | 66 | 32 | 0.0 | 0.0 | 0.00 | 0.06 | 0.00 | 86 | 1008.2 |
| 20260905090009 | 67 | 32 | 0.0 | 1.0 | 0.00 | 0.06 | 0.00 | 86 | 1008.2 |
| 20260905084511 | 67 | 32 | 0.0 | 0.0 | 0.00 | 0.06 | 0.00 | 85 | 1008.3 |
| 20260905083005 | 68 | 32 | 0.0 | 0.0 | 0.00 | 0.06 | 0.00 | 84 | 1008.1 |
| 20260905081504 | 68 | 32 | 0.0 | 1.0 | 0.00 | 0.06 | 0.00 | 84 | 1008.1 |
| 20260905080003 | 68 | 32 | 0.0 | 3.0 | 0.00 | 0.06 | 0.00 | 83 | 1008.1 |
| 20260905074502 | 68 | 33 | 0.0 | 1.0 | 0.00 | 0.06 | 0.00 | 83 | 1008.2 |
| 20260905073002 | 69 | 34 | 0.0 | 1.0 | 0.00 | 0.06 | 0.00 | 82 | 1008.3 |
| 20260905071604 | 69 | 33 | 0.0 | 2.0 | 0.00 | 0.06 | 0.00 | 82 | 1008.1 |
| 20260905070100 | 69 | 28 | 0.0 | 2.0 | 0.00 | 0.06 | 0.00 | 81 | 1008.2 |
| 20260905064600 | 69 | 23 | 0.0 | 5.0 | 0.00 | 0.06 | 0.00 | 81 | 1008.3 |
| 20260905063107 | 69 | 45 | 0.0 | 5.0 | 0.00 | 0.06 | 0.00 | 82 | 1008.4 |
| 20260905061609 | 69 | 47 | 0.0 | 3.0 | 0.00 | 0.06 | 0.00 | 83 | 1008.5 |
| 20260905060051 | 68 | 40 | 0.0 | 2.0 | 0.00 | 0.06 | 0.00 | 84 | 1008.7 |
| 20260905054551 | 68 | 116 | 0.0 | 0.0 | 0.00 | 0.06 | 0.00 | 86 | 1008.8 |
| 20260905053053 | 68 | 116 | 0.0 | 1.0 | 0.00 | 0.06 | 0.00 | 87 | 1008.9 |
| 20260905051548 | 68 | 117 | 0.0 | 1.0 | 0.00 | 0.06 | 0.00 | 87 | 1009.1 |
| 20260905050046 | 68 | 117 | 0.0 | 0.0 | 0.00 | 0.06 | 0.00 | 87 | 1009.2 |
| 20260905044546 | 68 | 117 | 0.0 | 0.0 | 0.00 | 0.06 | 0.00 | 88 | 1009.3 |
| 20260905043107 | 68 | 118 | 0.0 | 1.0 | 0.00 | 0.06 | 0.00 | 88 | 1009.4 |
| 20260905041542 | 68 | 121 | 0.0 | 0.0 | 0.00 | 0.06 | 0.00 | 89 | 1009.5 |
| 20260905040052 | 68 | 121 | 0.0 | 0.0 | 0.00 | 0.06 | 0.00 | 89 | 1009.6 |
| 20260905034538 | 68 | 121 | 0.0 | 0.0 | 0.00 | 0.06 | 0.06 | 88 | 1009.5 |
| 20260905033041 | 68 | 121 | 0.0 | 0.0 | 0.00 | 0.06 | 0.06 | 88 | 1009.4 |
| 20260905031537 | 68 | 121 | 0.0 | 0.0 | 0.00 | 0.06 | 0.06 | 88 | 1009.3 |
| 20260905030040 | 69 | 121 | 0.0 | 0.0 | 0.00 | 0.06 | 0.06 | 88 | 1009.2 |
| 20260905024534 | 69 | 121 | 0.0 | 0.0 | 0.00 | 0.06 | 0.06 | 88 | 1009.2 |
| 20260905023038 | 69 | 121 | 0.0 | 0.0 | 0.00 | 0.06 | 0.06 | 88 | 1009.3 |
| 20260905021535 | 69 | 121 | 0.0 | 0.0 | 0.00 | 0.06 | 0.06 | 87 | 1009.3 |
| 20260905020031 | 69 | 121 | 0.0 | 0.0 | 0.00 | 0.06 | 0.06 | 87 | 1009.4 |
| 20260905014529 | 70 | 121 | 0.0 | 0.0 | 0.00 | 0.06 | 0.06 | 87 | 1009.4 |
| 20260905013028 | 70 | 121 | 0.0 | 0.0 | 0.00 | 0.06 | 0.06 | 86 | 1009.5 |
| 20260905011528 | 71 | 121 | 0.0 | 0.0 | 0.00 | 0.06 | 0.06 | 86 | 1009.4 |
| 20260905010026 | 71 | 121 | 0.0 | 0.0 | 0.00 | 0.06 | 0.06 | 85 | 1009.5 |
| 20260905004525 | 72 | 121 | 0.0 | 0.0 | 0.00 | 0.06 | 0.06 | 84 | 1009.5 |
| 20260905003026 | 72 | 121 | 0.0 | 0.0 | 0.00 | 0.06 | 0.06 | 84 | 1009.6 |
| 20260905001529 | 73 | 121 | 0.0 | 0.0 | 0.00 | 0.06 | 0.06 | 83 | 1009.6 |
| 20260905000032 | 74 | 121 | 0.0 | 0.0 | 0.00 | 0.06 | 0.06 | 82 | 1009.5 |
| 20260904234532 | 74 | 121 | 0.0 | 1.0 | 0.00 | 0.06 | 0.06 | 80 | 1009.3 |
| 20260904233026 | 75 | 121 | 0.0 | 0.0 | 0.00 | 0.06 | 0.06 | 79 | 1009.2 |
| 20260904231523 | 76 | 121 | 0.0 | 0.0 | 0.00 | 0.06 | 0.06 | 77 | 1009.2 |
| 20260904230023 | 77 | 121 | 0.0 | 0.0 | 0.00 | 0.06 | 0.06 | 75 | 1009.1 |
| 20260904224527 | 78 | 121 | 0.0 | 0.0 | 0.00 | 0.06 | 0.06 | 72 | 1009.2 |
| 20260904223021 | 78 | 121 | 0.0 | 0.0 | 0.00 | 0.06 | 0.06 | 71 | 1009.3 |
| 20260904221525 | 79 | 121 | 0.0 | 2.0 | 0.00 | 0.06 | 0.06 | 69 | 1009.2 |
| 20260904220026 | 79 | 38 | 0.0 | 2.0 | 0.00 | 0.06 | 0.06 | 69 | 1009.0 |
| 20260904214531 | 79 | 39 | 0.0 | 2.0 | 0.00 | 0.06 | 0.06 | 67 | 1009.1 |
| 20260904213019 | 80 | 38 | 0.0 | 4.0 | 0.01 | 0.06 | 0.06 | 66 | 1009.1 |
| 20260904211522 | 80 | 234 | 0.0 | 4.0 | 0.01 | 0.06 | 0.06 | 65 | 1009.0 |
| 20260904210016 | 80 | 53 | 0.0 | 8.0 | 0.01 | 0.06 | 0.06 | 65 | 1009.1 |
| 20260904204514 | 81 | 263 | 0.0 | 5.0 | 0.01 | 0.06 | 0.06 | 63 | 1009.1 |
| 20260904203027 | 81 | 244 | 0.0 | 9.0 | 0.01 | 0.05 | 0.05 | 64 | 1009.2 |
| 20260904201514 | 81 | 232 | 1.0 | 8.0 | 0.01 | 0.05 | 0.05 | 63 | 1009.2 |
| 20260904200014 | 82 | 309 | 0.0 | 9.0 | 0.01 | 0.05 | 0.05 | 63 | 1009.2 |
| 20260904194520 | 82 | 230 | 0.0 | 10.0 | 0.01 | 0.05 | 0.05 | 64 | 1009.3 |
| 20260904193011 | 82 | 319 | 2.0 | 8.0 | 0.01 | 0.04 | 0.04 | 64 | 1009.4 |
| 20260904191510 | 82 | 22 | 0.0 | 7.0 | 0.01 | 0.04 | 0.04 | 62 | 1009.5 |
| 20260904190008 | 82 | 304 | 2.0 | 9.0 | 0.01 | 0.04 | 0.04 | 63 | 1009.6 |
| 20260904184507 | 82 | 298 | 1.0 | 6.0 | 0.02 | 0.04 | 0.04 | 64 | 1009.5 |
| 20260904183007 | 82 | 312 | 0.0 | 5.0 | 0.01 | 0.03 | 0.03 | 66 | 1009.4 |
| 20260904181505 | 81 | 235 | 0.0 | 5.0 | 0.01 | 0.03 | 0.03 | 68 | 1009.3 |
| 20260904180004 | 81 | 61 | 0.0 | 7.0 | 0.02 | 0.03 | 0.03 | 67 | 1009.3 |
| 20260904174503 | 81 | 263 | 2.0 | 9.0 | 0.01 | 0.02 | 0.02 | 69 | 1009.4 |
| 20260904173006 | 81 | 277 | 1.0 | 10.0 | 0.01 | 0.02 | 0.02 | 68 | 1009.6 |
| 20260904171501 | 80 | 217 | 0.0 | 5.0 | 0.02 | 0.02 | 0.02 | 72 | 1009.6 |
| 20260904170100 | 80 | 26 | 0.0 | 8.0 | 0.01 | 0.01 | 0.01 | 73 | 1009.7 |
| 20260904164559 | 80 | 197 | 1.0 | 7.0 | 0.01 | 0.01 | 0.01 | 75 | 1009.7 |
| 20260904163057 | 80 | 74 | 0.0 | 4.0 | 0.01 | 0.01 | 0.01 | 76 | 1009.8 |
| 20260904161617 | 80 | 313 | 0.0 | 7.0 | 0.00 | 0.00 | 0.00 | 79 | 1009.7 |
| 20260904160055 | 79 | 78 | 0.0 | 9.0 | 0.00 | 0.00 | 0.00 | 80 | 1010.0 |
| 20260904154552 | 79 | 78 | 1.0 | 7.0 | 0.00 | 0.00 | 0.00 | 81 | 1010.1 |
| 20260904153055 | 78 | 76 | 0.0 | 6.0 | 0.00 | 0.00 | 0.00 | 82 | 1010.1 |
| 20260904151549 | 78 | 133 | 0.0 | 4.0 | 0.00 | 0.00 | 0.00 | 82 | 1010.1 |
| 20260904150056 | 78 | 39 | 0.0 | 8.0 | 0.00 | 0.00 | 0.00 | 84 | 1010.0 |
| 20260904144557 | 77 | 348 | 0.0 | 4.0 | 0.00 | 0.00 | 0.00 | 85 | 1009.9 |
| 20260904143050 | 76 | 52 | 0.0 | 6.0 | 0.00 | 0.00 | 0.00 | 90 | 1010.0 |
| 20260904141540 | 76 | 70 | 0.0 | 3.0 | 0.00 | 0.00 | 0.00 | 93 | 1009.9 |